Location: ????????
(38.4362°N, 22.8767°E)
Time: 18:48:49
(UTC+00:00)

EO 1 Delta rocket - Pass Details

Date: 23 April 2024
Orbit: 697 x 1790 km, 95.4° (Epoch: 27 May)

Event Time Altitude Azimuth Distance (km) Brightness Sun altitude
Rises 01:32:59 0° 5° (N) 3,092 7.8 -22.9°
Reaches altitude 10° 01:35:09 10° 3° (N) 2,196 6.9 -22.6°
Maximum altitude 01:39:49 66° 281° (WNW) 838 4.0 -21.9°
Enters shadow 01:41:02 49° 223° (SW) 1,016 4.2 -21.7°
